Aeroporto :
LOGIN :

Iscrizione | Disclaimer

   EN    FR    IT 

 










Sommario :    VFR   VFR Marginale   IFR   IFR Intensivo   IFR Molto Intensivo
Visibilità : 
Base nubi : 
>= 8 km
>= 3000ft
5 / 8 km
1000 / 3000 ft
1500m / 5 km
500 / 1000 ft
800 / 1500m
200 / 500 ft
< 800m
< 200 ft
Simboli :   Temporali  Nebbia  Neve Forte  Precipitazioni Forti  Vento > 20 kt
SIGMETs :   Varie  Temporali  Ghiacco  Turbolenza  Onda orograficha  Ceneri Vulcaniche






- Altitudine del aeroporto : 38 ft
- Codice IATA : ADX


EGQL - RAF Leuchars

ULTIMO METAR :
  • 060850Z AUTO 31014KT 9999 NCD 16/06 Q1013

METARs OBSOLETI :
  • 060801Z 30011KT 9999 FEW045 15/08 Q1012 RMK BLACKBLU
  • 060650Z 31010KT 9999 FEW044 14/07 Q1011 RMK BLU

TAF TAF EGQL
Valido dal 06 a 09 ore il 06 a 18 ore UTC


060732Z 0609/0618 30012KT 9999 FEW045
PROB30
TEMPO 0609/0612 28015G25KT
BECMG 0615/0618 27015KT
TEMPO 0616/0618 28018G28KT



MetMap, La meteo Aeronautica in un colpo d'occhio ! - Copyright ORBIFLY Dicembre 2007 - Disclaimer

ORBIFLY MET'MAP TEAM :

Programmazione e sviluppo : Alexandra Zaïnal
Concezione : Baudouin d'Aumeries
Aiuto per la programmazione : Marc-Olivier Méhu
Supporto tecnico e logistico : Manuel Goepfert
Aiuto per la traduzione : Arnaldo La Scala

Contatto : metmap@orbifly.com




FONTI E CREDITI :

   NOAA